FALCON 9 R/B, 58996

Orbit data source: Space-Track

FALCON 9 R/B, 58996 is space debris in HEO originally from a launch on Tue, 20 Feb 2024 UTC launched from the Air Force Eastern Test Range (AFETR). Debris objects in space refer to the collection of defunct objects orbiting the Earth. Examples of debris include non-operational satellites, rocket bodies, and fragments generated from explosions, collisions, or faulty payload assembly.

Loading next visibility...
Identifier
58996, 2024-035B
Orbit
HEO
Last TLE update
1 day ago
Origin
Manufacturer
SpaceX
Mission
Spacecraft
Bus & Motor
F9ST2, Unknown motor
Mass
~4,000 kg wet, ~4,000 kg dry
Launch date (UTC)
2024-02-20 (1 year ago)
Launch vehicle
Unknown
Launch site
Air Force Eastern Test Range (AFETR)
Object type
Payload
Rocket body
Debris
Shape & HBR
Cyl, 15.53 m
Radar Cross Section
39.980 m², Large (>1 m²)

Expand to show TLE details & history

TLE from 1 day ago
0 FALCON 9 R/B
1 58996U 24035B   25190.84685574  .00000001  00000-0 -31798-3 0  9998
2 58996  19.2629 175.9580 7945213  20.0370 358.5146  1.39505534  7011
Epoch: 2025-07-09T20:19Z
TLE epoch observation values (Epoch: 2025-07-09T20:19:28.335Z)
Latitude
0.00104°
Longitude
-57.12242°
Altitude
818.34 km
Speed
9.949 km/s
True Right ascension
11h 43m 04s
True Declination
0° 00' 04"
Sunlit
Object was in daylight at epoch
Visualization orbit readout
Latitude
-12.59244°
Longitude
162.75524°
Altitude
41,922.984 km
Speed
2.173 km/s
Apparent Right ascension
02h 26m 20s
Apparent Declination
-15° 40' 60"
Sunlit
Object is in daylight
Visualization observer readout
Local Sidereal Time
15:02:41
Azimuth
20.689° NNE
Elevation
-64.504°
Doppler factor
1
Orbital elements
Apogee altitude
54,344.722 km
Perigee altitude
574.834 km
Semi-major axis
33,837.915 km
Eccentricity
0.79452
Inclination
19.2629°
RAAN
175.958°
Arg. of periapsis
20.037°
True anomaly
Unknown
Mean anomaly
358.5146°
Eccentric anomaly
Unknown
Mean motion
0.34869 °/min
Orbital period
1,032.44 mins
BSTAR
-0.00031798
Loading maneuver chart data...
Loading SW <> Apogee altitude chart data...
Loading historical data...
Loading historical data...
Loading historical data...
Loading historical data...
Loading historical data...
Loading historical data...
Loading historical data...
Other satellites on launch #35 in the year 2024 (2024-02-20 UTC)

FALCON 9 R/B Visibility forecast

Observer location: undefined°, undefined°

Span
Click to sort rows by Start time (UTC) header in descending order
Start Az.
Max El. time (UTC)
Max El. Az.
Max El.
End time (UTC)
End Az.
606 mins2025-07-11 07:03:04.777Z242.451° WSW2025-07-11 07:25:04.777Z171.425° S37.465°2025-07-11 17:09:04.777Z243.057° WSW
|